[[{"header":{"parameterUnit":"m.s-1","parameterCategory":1,"la1":30.2991,"la2":30.254,"lo1":-89.0895,"lo2":-89.0444,"dy":0.0017,"dx":0.0017,"nx":28,"ny":28,"refTime":"2025-11-11T09:00:00:Z","depth":0,"parameterNumber":2,"parameterNumberName":"U-component_of_WINDS"},"data":[0,0,0,0,0,0,0,0,0,0,0,0,0,0,0,0,0,0,0,0,0,0,0,0,0,0,0,0,0,0,0,0,0,0,0,0,0,0,0,0,0,0,0,0,0,0,0,0,0,0,0,0,0,0,0,0,0,0,1.418,1.418,0,1.4193,1.4193,1.4193,1.4182,1.4182,1.4181,1.4181,1.4194,1.4194,1.4195,0,0,0,0,0,0,0,0,0,0,0,0,0,1.4148,1.4148,1.418,1.418,1.4181,1.4193,1.4193,1.4193,1.4182,1.4182,1.4181,1.418,1.4193,1.4194,1.4195,0,0,0,0,0,0,0,0,0,0,0,0,0,1.4161,1.4149,1.418,1.4177,1.4176,1.4193,1.4193,1.4193,1.4182,1.4182,1.4181,1.418,1.4193,1.4194,1.4195,1.4216,0,0,1.4199,1.4199,0,0,0,0,0,0,0,0,1.4161,1.4163,1.4177,1.4177,1.4177,1.4185,1.4186,1.4201,1.4182,1.418,1.4181,1.418,1.4191,1.4193,1.4196,1.4217,1.4217,1.4199,1.42,1.42,1.42,0,0,0,0,0,0,0,1.416,1.4162,1.4185,1.4177,1.4177,1.4175,1.4176,1.4189,1.4189,1.418,1.4179,1.4181,1.4191,1.4195,1.4197,1.4217,1.4199,1.42,1.4201,1.4201,1.4257,1.4258,0,0,0,0,0,0,1.4159,1.4161,1.4185,1.4186,1.4167,1.4176,1.4177,1.4183,1.4189,1.4189,1.4182,1.418,1.4194,1.4195,1.4197,1.4222,1.42,1.4201,1.4202,1.4256,1.4257,1.4258,0,0,0,0,0,0,1.4158,1.4161,1.4184,1.4173,1.4176,1.4177,1.4184,1.4184,1.4188,1.419,1.419,1.4186,1.4193,1.4195,1.4212,1.4223,1.4202,1.4203,1.4255,1.4257,1.4258,1.4273,0,0,0,0,0,0,1.4157,1.4161,1.4168,1.4174,1.4177,1.4198,1.4185,1.4184,1.419,1.4189,1.4194,1.4194,1.4193,1.421,1.4213,1.4224,1.4204,1.4254,1.4256,1.4257,1.4272,1.4275,1.4277,0,0,0,0,0,1.4156,1.4172,1.4169,1.4172,1.4186,1.4199,1.4201,1.4199,1.4191,1.4199,1.4201,1.4194,1.4221,1.4212,1.4215,1.4226,1.4254,1.4255,1.4257,1.427,1.4274,1.4277,0,0,0,0,0,0,1.4167,1.4172,1.4169,1.4187,1.4193,1.4197,1.4207,1.4203,1.4211,1.4209,1.4206,1.4208,1.4225,1.4228,1.4217,1.4248,1.4236,1.4239,1.4245,1.4249,1.4252,1.425,1.4205,0,0,0,0,0,1.4172,1.4182,1.4186,1.4201,1.4205,1.4205,1.4211,1.4209,1.4215,1.4217,1.422,1.4226,1.4236,1.4243,1.4252,1.4273,1.4274,1.4282,1.4285,1.4287,1.4289,1.4301,1.4305,1.4264,1.4264,1.4264,0,0,1.4181,1.4185,1.4192,1.4204,1.4208,1.4219,1.4207,1.4219,1.4227,1.4219,1.4235,1.4237,1.4244,1.4263,1.4271,1.4266,1.4301,1.429,1.4291,1.4292,1.4303,1.4307,1.4311,1.4265,1.4265,1.4265,0,0,1.4204,1.4208,1.4221,1.4226,1.4233,1.4234,1.4238,1.4243,1.4245,1.4261,1.4255,1.4266,1.4283,1.4288,1.4293,1.432,1.4315,1.4324,1.4338,1.435,1.4353,1.4356,1.4366,1.437,1.4326,1.4326,1.4326,0,1.4214,1.423,1.4229,1.4241,1.4247,1.4241,1.4255,1.426,1.427,1.4275,1.4268,1.4291,1.4295,1.4315,1.4322,1.4326,1.4331,1.4322,1.4353,1.4356,1.4358,1.4368,1.4372,1.4327,1.4327,1.4327,1.4327,0,1.4243,1.4254,1.4265,1.4275,1.4282,1.4295,1.4297,1.4304,1.4303,1.4304,1.4321,1.4327,1.4337,1.4342,1.434,1.4363,1.4359,1.4353,1.4341,1.4363,1.4372,1.4376,1.4328,1.4328,1.4328,1.4327,0,0,1.427,1.4282,1.4285,1.429,1.4299,1.4308,1.4322,1.4333,1.434,1.4347,1.4359,1.4375,1.437,1.4376,1.4375,1.4385,1.4407,1.4378,1.4378,1.4383,1.4433,1.4438,1.4442,1.4405,1.4405,1.4406,1.4433,0,1.4293,1.4317,1.4317,1.4339,1.435,1.4346,1.4359,1.4366,1.4368,1.4378,1.4382,1.4393,1.4385,1.4389,1.4399,1.4402,1.4417,1.44,1.4416,1.4416,1.4413,1.4446,1.445,1.4475,1.4436,1.4437,1.4437,0,1.4322,1.4332,1.4355,1.4364,1.4368,1.4379,1.439,1.44,1.4408,1.441,1.4418,1.4416,1.4431,1.4419,1.444,1.4429,1.4436,1.4439,1.444,1.444,1.4427,1.4448,1.4483,1.4487,1.4443,1.4442,1.4442,0,1.434,1.4359,1.4375,1.438,1.439,1.4398,1.4403,1.4411,1.4418,1.4428,1.4433,1.4445,1.4451,1.446,1.4462,1.4453,1.4483,1.4472,1.4485,1.4485,1.449,1.449,1.4527,1.4496,1.4496,1.4495,1.4495,0,1.4365,1.4379,1.4384,1.4394,1.441,1.4411,1.4428,1.4432,1.444,1.4451,1.4449,1.4459,1.4461,1.4473,1.4474,1.4492,1.4495,1.4497,1.4497,1.4496,1.4496,1.45,1.4498,1.4496,1.4496,1.4496,1.4496,0,1.4387,1.439,1.4408,1.4417,1.442,1.4432,1.444,1.445,1.4453,1.4468,1.4472,1.4477,1.4491,1.4494,1.451,1.4511,1.4532,1.453,1.4529,1.4528,1.4541,1.454,1.4582,1.4588,1.4553,1.4553,1.4553,0,1.4402,1.4413,1.4424,1.4431,1.4437,1.4449,1.4457,1.4459,1.4467,1.4479,1.4488,1.4502,1.4513,1.4535,1.4541,1.4553,1.4552,1.4566,1.4554,1.4554,1.4552,1.4551,1.4553,1.4568,1.4568,1.4569,1.4569,0,1.4428,1.443,1.4441,1.4454,1.4463,1.4473,1.4483,1.4489,1.4493,1.4503,1.4517,1.4526,1.4543,1.4557,1.457,1.4575,1.4573,1.4573,1.4577,1.4576,1.4575,1.4576,1.4535,1.4572,1.4571,1.4571,1.4571,1.4571,1.4447,1.4457,1.4467,1.448,1.4488,1.4497,1.4508,1.4513,1.4525,1.4539,1.4541,1.4556,1.4566,1.4584,1.4591,1.4603,1.4599,1.4604,1.4606,1.4607,1.4608,1.4574,1.4606,1.4606,1.4606,1.4606,1.4606,0,1.4473,1.448,1.4492,1.4506,1.4517,1.4515,1.4526,1.4535,1.4549,1.4559,1.457,1.4587,1.4601,1.4609,1.4623,1.4632,1.4631,1.4635,1.4634,1.4636,1.4611,1.4606,1.4636,1.4636,1.4636,1.4636,1.4636,1.4636,1.4488,1.4506,1.4509,1.4531,1.4538,1.4553,1.456,1.4569,1.4577,1.4597,1.4608,1.4614,1.4623,1.4638,1.4651,1.4653,1.4658,1.4663,1.4664,1.4641,1.4638,1.4635,1.463,1.4664,1.4664,1.4688,1.4689,1.4689]},{"header":{"parameterUnit":"m.s-1","parameterCategory":1,"la1":30.2991,"la2":30.254,"lo1":-89.0895,"lo2":-89.0444,"dy":0.0017,"dx":0.0017,"nx":28,"ny":28,"refTime":"2025-11-11T09:00:00:Z","depth":0,"parameterNumber":3,"parameterNumberName":"V-component_of_WINDS"},"data":[0,0,0,0,0,0,0,0,0,0,0,0,0,0,0,0,0,0,0,0,0,0,0,0,0,0,0,0,0,0,0,0,0,0,0,0,0,0,0,0,0,0,0,0,0,0,0,0,0,0,0,0,0,0,0,0,0,0,-7.0921,-7.0923,0,-7.1133,-7.1135,-7.1138,-7.1047,-7.1042,-7.1037,-7.1032,-7.1245,-7.1255,-7.1265,0,0,0,0,0,0,0,0,0,0,0,0,0,-7.0432,-7.0442,-7.092,-7.0923,-7.0926,-7.1133,-7.1135,-7.1138,-7.1048,-7.1041,-7.1035,-7.1029,-7.1242,-7.1254,-7.1266,0,0,0,0,0,0,0,0,0,0,0,0,0,-7.0644,-7.0445,-7.092,-7.0906,-7.0906,-7.1132,-7.1136,-7.1139,-7.1049,-7.1041,-7.1034,-7.1026,-7.1237,-7.1253,-7.1268,-7.1519,0,0,-7.1316,-7.1323,0,0,0,0,0,0,0,0,-7.0633,-7.0662,-7.0905,-7.0907,-7.0908,-7.1056,-7.1041,-7.1266,-7.1051,-7.0995,-7.1032,-7.1023,-7.1188,-7.1207,-7.1264,-7.1529,-7.1538,-7.1317,-7.1327,-7.1334,-7.1338,0,0,0,0,0,0,0,-7.0618,-7.0653,-7.1004,-7.0909,-7.0911,-7.0887,-7.0909,-7.1084,-7.1132,-7.0999,-7.0993,-7.102,-7.1187,-7.1249,-7.1268,-7.1541,-7.1317,-7.1331,-7.1341,-7.1347,-7.2023,-7.2031,0,0,0,0,0,0,-7.0604,-7.0641,-7.0998,-7.1011,-7.0749,-7.0902,-7.0926,-7.1016,-7.113,-7.114,-7.1026,-7.1015,-7.1226,-7.125,-7.1275,-7.1577,-7.1334,-7.1348,-7.1357,-7.2014,-7.2025,-7.2034,0,0,0,0,0,0,-7.0594,-7.0636,-7.0989,-7.0825,-7.0868,-7.0919,-7.102,-7.1024,-7.1086,-7.115,-7.1158,-7.108,-7.1221,-7.1253,-7.1459,-7.1583,-7.1355,-7.137,-7.2004,-7.2017,-7.2029,-7.2181,0,0,0,0,0,0,-7.058,-7.0633,-7.073,-7.0827,-7.0877,-7.1172,-7.1028,-7.1034,-7.1114,-7.1101,-7.1203,-7.1213,-7.1217,-7.1436,-7.1475,-7.16,-7.1382,-7.1993,-7.201,-7.2025,-7.2166,-7.2198,-7.2225,0,0,0,0,0,-7.0563,-7.0764,-7.0736,-7.0779,-7.0999,-7.1179,-7.1207,-7.1209,-7.1124,-7.1221,-7.1262,-7.1209,-7.1563,-7.1458,-7.1501,-7.1633,-7.1985,-7.2005,-7.2024,-7.2152,-7.2192,-7.2225,0,0,0,0,0,0,-7.0678,-7.0776,-7.0746,-7.0985,-7.1074,-7.1163,-7.1286,-7.1251,-7.1365,-7.1348,-7.1345,-7.1369,-7.1582,-7.1628,-7.1509,-7.1881,-7.1761,-7.179,-7.1844,-7.1882,-7.1911,-7.1896,-7.1395,0,0,0,0,0,-7.0732,-7.0871,-7.0948,-7.1151,-7.1198,-7.1235,-7.1313,-7.1307,-7.1399,-7.1436,-7.1492,-7.1582,-7.1713,-7.18,-7.1924,-7.2171,-7.2192,-7.2283,-7.2313,-7.2337,-7.2362,-7.2496,-7.2537,-7.2097,-7.2097,-7.2096,0,0,-7.0843,-7.0914,-7.1002,-7.1176,-7.1245,-7.1388,-7.1267,-7.1423,-7.1529,-7.1459,-7.1658,-7.1702,-7.1802,-7.2031,-7.2134,-7.2075,-7.2488,-7.2362,-7.2381,-7.2392,-7.252,-7.2562,-7.2599,-7.211,-7.2108,-7.2105,0,0,-7.112,-7.1187,-7.1364,-7.1436,-7.1542,-7.1565,-7.1607,-7.1702,-7.1729,-7.1929,-7.188,-7.2004,-7.2231,-7.2304,-7.2371,-7.2676,-7.2631,-7.2716,-7.2873,-7.3003,-7.3038,-7.3069,-7.3177,-7.3216,-7.2741,-7.2741,-7.2741,0,-7.1244,-7.1459,-7.1459,-7.162,-7.1698,-7.1642,-7.1821,-7.189,-7.2031,-7.2085,-7.2018,-7.2301,-7.2364,-7.2609,-7.2683,-7.2739,-7.2787,-7.2705,-7.3033,-7.3064,-7.3093,-7.3196,-7.3237,-7.2751,-7.275,-7.2749,-7.2748,0,-7.1607,-7.1757,-7.1887,-7.2026,-7.2118,-7.2287,-7.2311,-7.2404,-7.239,-7.242,-7.2624,-7.2698,-7.2837,-7.2894,-7.2881,-7.3137,-7.3098,-7.3032,-7.2911,-7.3144,-7.3242,-7.3281,-7.2764,-7.2761,-7.2758,-7.2756,0,0,-7.1963,-7.21,-7.2147,-7.221,-7.2323,-7.2438,-7.2603,-7.274,-7.282,-7.2919,-7.3058,-7.3251,-7.3191,-7.3267,-7.3262,-7.3377,-7.3614,-7.3297,-7.3299,-7.3354,-7.39,-7.3949,-7.3995,-7.3584,-7.3592,-7.3598,-7.3891,0,-7.2248,-7.254,-7.2544,-7.2812,-7.295,-7.29,-7.3044,-7.3128,-7.316,-7.3281,-7.3315,-7.3453,-7.3363,-7.3409,-7.352,-7.3561,-7.3723,-7.354,-7.3712,-7.3719,-7.369,-7.4046,-7.4098,-7.4371,-7.3929,-7.3936,-7.3941,0,-7.2619,-7.2732,-7.3014,-7.3107,-7.3165,-7.3295,-7.3421,-7.3537,-7.3631,-7.3646,-7.3732,-7.371,-7.3877,-7.3751,-7.3982,-7.3857,-7.3928,-7.3959,-7.3969,-7.3986,-7.3844,-7.4072,-7.4458,-7.45,-7.4,-7.3996,-7.3991,0,-7.2851,-7.3072,-7.327,-7.3325,-7.3438,-7.3531,-7.3582,-7.3669,-7.3751,-7.386,-7.3913,-7.404,-7.411,-7.4208,-7.4221,-7.4128,-7.4453,-7.4327,-7.4469,-7.4469,-7.454,-7.4536,-7.4944,-7.4586,-7.4585,-7.4584,-7.4583,0,-7.3169,-7.3343,-7.3375,-7.3497,-7.3691,-7.3694,-7.3885,-7.3928,-7.4006,-7.4134,-7.4097,-7.4218,-7.4227,-7.4351,-7.4361,-7.4551,-7.4582,-7.4598,-7.4599,-7.4602,-7.46,-7.4649,-7.463,-7.4595,-7.4593,-7.459,-7.4589,0,-7.346,-7.3489,-7.3701,-7.3791,-7.3818,-7.3957,-7.4034,-7.4149,-7.4177,-7.434,-7.4379,-7.4423,-7.4567,-7.4589,-7.4757,-7.4764,-7.4992,-7.4972,-7.4961,-7.4958,-7.5099,-7.5086,-7.5553,-7.5615,-7.5215,-7.5219,-7.5222,0,-7.3662,-7.3795,-7.39,-7.3984,-7.4041,-7.4176,-7.426,-7.4268,-7.4356,-7.4474,-7.4575,-7.4715,-7.4828,-7.506,-7.5107,-7.5235,-7.5219,-7.5374,-7.5238,-7.5237,-7.5222,-7.5214,-7.5228,-7.54,-7.5405,-7.5408,-7.5411,0,-7.4016,-7.4024,-7.4147,-7.4276,-7.4377,-7.4479,-7.4574,-7.4645,-7.4664,-7.4765,-7.4913,-7.5001,-7.5173,-7.5313,-7.5441,-7.5491,-7.5456,-7.5454,-7.5493,-7.5498,-7.5486,-7.5495,-7.5033,-7.5443,-7.544,-7.5437,-7.5436,-7.5434,-7.4269,-7.4385,-7.4478,-7.4616,-7.4689,-7.4779,-7.4893,-7.4936,-7.5059,-7.5202,-7.5198,-7.536,-7.545,-7.5618,-7.5677,-7.5803,-7.5753,-7.581,-7.5825,-7.5839,-7.5854,-7.5466,-7.5826,-7.5826,-7.5825,-7.5824,-7.5823,0,-7.4622,-7.4679,-7.4807,-7.4942,-7.5051,-7.5008,-7.5111,-7.5205,-7.5349,-7.5436,-7.5549,-7.5718,-7.5853,-7.5911,-7.6043,-7.6133,-7.612,-7.6168,-7.6162,-7.6174,-7.5891,-7.5844,-7.6177,-7.6177,-7.6177,-7.6176,-7.6176,-7.6176,-7.4819,-7.5014,-7.5032,-7.5262,-7.5317,-7.5477,-7.554,-7.5623,-7.5693,-7.5884,-7.5997,-7.6034,-7.611,-7.6248,-7.637,-7.6383,-7.6433,-7.6489,-7.6495,-7.623,-7.6194,-7.616,-7.6115,-7.65,-7.6501,-7.6768,-7.677,-7.6772]}]]